Main page
Satellite images Climate Cyclones Lightning AirportsFAQ Languages Contact Newsletter About
Weather : Europe Africa North America South America Asia Australia-Oceania Others

, Phrae, Phrae Airport

48330

latitude: , longitude: Thailand, elevation: 18-10N m


METAR: VTCP 161000Z 22005KT 4500 HZ FEW028CB SCT030 31/21 Q1009 TEMPO 3000 RA